This is the latest recevied weather packets stored in our database for station/object KC0OOO-WX. If no packets are shown the sender has not sent any weather packets the latest 10 day(s).
| Time | Temp. | Humidity | Pressure | Rain* | Wind** | Luminosity | Snow |
|---|---|---|---|---|---|---|---|
| 1777841575 | 20.56° C | 20% | 1021 hPa | 0 mm | - | - | - |
| 1777840975 | 20.56° C | 22% | 1021.3 hPa | 0 mm | - | - | - |
| 1777840375 | 20° C | 21% | 1021.4 hPa | 0 mm | - | - | - |
| 1777839775 | 20° C | 21% | 1022 hPa | 0 mm | - | - | - |
| 1777839175 | 18.89° C | 22% | 1022 hPa | 0 mm | - | - | - |
| 1777838575 | 18.33° C | 22% | 1022.4 hPa | 0 mm | - | - | - |
| 1777837975 | 18.33° C | 23% | 1022.4 hPa | 0 mm | - | - | - |
| 1777837375 | 18.89° C | 24% | 1022.7 hPa | 0 mm | - | - | - |
| 1777836775 | 18.33° C | 23% | 1022.8 hPa | 0 mm | - | - | - |
| 1777836175 | 17.22° C | 25% | 1023.4 hPa | 0 mm | - | - | - |
| 1777835575 | 16.67° C | 25% | 1023.4 hPa | 0 mm | - | - | - |
| 1777834975 | 16.67° C | 25% | 1023.4 hPa | 0 mm | - | - | - |
| 1777834375 | 16.67° C | 27% | 1023.7 hPa | 0 mm | - | - | - |
| 1777833745 | 16.67° C | 26% | 1023.7 hPa | 0 mm | - | - | - |
| 1777833145 | 17.22° C | 25% | 1023.7 hPa | 0 mm | - | - | - |
| 1777832545 | 17.22° C | 24% | 1023.7 hPa | 0 mm | - | - | - |
| 1777831945 | 17.22° C | 27% | 1023.8 hPa | 0 mm | - | - | - |
| 1777831345 | 17.22° C | 27% | 1024.4 hPa | 0 mm | - | - | - |
| 1777830745 | 16.67° C | 27% | 1024.4 hPa | 0 mm | - | - | - |
| 1777830145 | 16.11° C | 27% | 1024.4 hPa | 0 mm | - | - | - |
| 1777829544 | 16.11° C | 30% | 1024.7 hPa | 0 mm | - | - | - |
| 1777828944 | 16.67° C | 31% | 1024.7 hPa | 0 mm | - | - | - |
| 1777828344 | 16.11° C | 33% | 1024.8 hPa | 0 mm | - | - | - |
| 1777827744 | 15° C | 34% | 1025.1 hPa | 0 mm | - | - | - |
| 1777827144 | 14.44° C | 33% | 1025.1 hPa | 0 mm | - | - | - |
* Rain latest hour (hover to see other rain measurements)
** Current wind speed in m/s (hover to see current wind gust speed)